1522083600.05,19564,13.75,72530.8,-10.13,-38.67,-38.67,0,*6C
1522083601.26,19565,13.75,72532.3,-10.15,-38.73,-38.73,0,*6B
1522083602.55,19566,13.75,72536.3,-10.13,-38.49,-38.79,0,*6D
1522083603.83,19567,13.75,72528.3,-10.13,-38.67,-38.67,0,*6F
1522083605.12,19568,13.75,72532.8,-10.13,-38.67,-38.79,0,*6F
1522083606.41,19569,13.75,72530.3,-10.13,-38.79,-38.79,0,*61
1522083607.7,19570,13.75,72534.8,-10.13,-38.67,-38.79,0,*66
1522083608.92,19571,13.75,72530.5,-10.15,-38.67,-38.73,0,*6B
1522083610.19,19572,13.75,72530.3,-10.13,-38.61,-38.67,0,*6D
1522083611.39,19573,13.75,72530.5,-10.15,-38.55,-38.73,0,*68
1522083612.6,19574,13.75,72530.5,-10.15,-38.55,-38.73,0,*6F
1522083613.89,19575,13.75,72530.0,-10.13,-38.49,-38.67,0,*60
1522083615.09,19576,13.75,72526.3,-10.15,-38.55,-38.73,0,*6D
1522083616.38,19577,13.75,72528.8,-10.13,-38.29,-38.49,0,*68
1522083617.68,19578,13.75,72526.8,-10.13,-38.29,-38.49,0,*67
1522083618.94,19579,13.75,72530.0,-10.15,-36.25,-38.49,0,*62
1522083620.18,19580,13.75,72528.5,-10.15,-37.03,-38.67,0,*6D
1522083621.47,19581,13.75,72528.3,-10.13,-37.09,-38.49,0,*6C
1522083622.76,19582,13.75,72526.3,-10.13,-37.09,-38.49,0,*6F
1522083623.97,19583,13.75,72524.0,-10.15,-37.15,-38.55,0,*68
1522083625.26,19584,13.75,72528.3,-10.13,-36.49,-38.49,0,*6C
1522083626.53,19585,13.75,72530.0,-10.13,-28.09,-37.87,0,*6B
1522083627.76,19586,13.75,72528.5,-10.15,-28.05,-38.05,0,*67
1522083629.02,19587,13.75,72530.0,-10.13,-27.55,-37.69,0,*6F
1522083630.23,19588,13.75,72528.3,-10.15,-26.61,-37.57,0,*6D
1522083631.51,19589,13.75,72528.5,-10.13,-27.07,-37.81,0,*60
1522083632.72,19590,13.75,72528.0,-10.15,-27.67,-37.87,0,*6E
1522083633.98,19591,13.75,72530.5,-10.13,-27.55,-37.69,0,*68
1522083635.22,19592,13.75,72530.8,-10.15,-27.07,-37.81,0,*6C
1522083636.49,19593,13.75,72532.0,-10.09,-28.05,-37.93,0,*6E
1522083637.74,19594,13.75,72530.0,-10.09,-28.37,-37.93,0,*68
1522083639.01,19595,13.75,72530.5,-10.07,-28.37,-37.93,0,*67
1522083640.27,19596,13.75,72534.0,-10.09,-28.09,-37.93,0,*67
1522083641.51,19597,13.75,72528.5,-10.15,-28.21,-38.05,0,*61
1522083642.79,19598,13.75,72530.8,-10.09,-28.21,-37.99,0,*69
1522083644.05,19599,13.75,72528.3,-10.09,-28.75,-37.93,0,*63
1522083645.31,19600,13.75,72528.3,-10.15,-28.91,-38.11,0,*62
1522083646.58,19601,13.75,72524.5,-10.13,-28.63,-38.05,0,*6D
1522083647.83,19602,13.75,72530.0,-10.13,-28.43,-38.05,0,*6C
1522083649.1,19603,13.75,72530.3,-10.13,-31.79,-38.23,0,*68
1522083650.35,19604,13.75,72526.0,-10.09,-32.45,-38.35,0,*6F
1522083651.59,19605,13.75,72528.8,-10.13,-34.25,-38.61,0,*64
1522083652.8,19606,13.75,72526.8,-10.15,-34.13,-38.55,0,*63
1522083654.07,19607,13.75,72528.0,-10.13,-34.83,-38.61,0,*6A
1522083655.33,19608,13.75,72530.3,-10.15,-37.93,-38.67,0,*67
1522083656.59,19609,13.75,72526.3,-10.13,-38.43,-38.67,0,*62
1522083657.88,19610,13.75,72530.3,-10.13,-38.67,-38.67,0,*6C
1522083659.17,19611,13.75,72528.0,-10.13,-38.49,-38.67,0,*61
1522083660.43,19612,13.75,72534.0,-10.13,-38.61,-38.67,0,*68
1522083661.65,19613,13.75,72532.5,-10.15,-38.85,-38.85,0,*69
1522083662.88,19614,13.75,72528.5,-10.13,-38.97,-38.97,0,*68
1522083664.17,19615,13.75,72530.8,-10.13,-39.03,-39.15,0,*6E
1522083665.43,19616,13.75,72528.0,-10.15,-39.03,-39.15,0,*6B
1522083666.69,19617,13.75,72528.0,-10.13,-39.03,-38.97,0,*67
1522083667.97,19618,13.75,72528.3,-10.13,-39.03,-39.03,0,*64
1522083669.23,19619,13.75,72530.0,-10.15,-38.91,-38.91,0,*63
1522083670.44,19620,13.75,72530.0,-10.15,-38.85,-38.73,0,*60
1522083671.65,19621,13.75,72528.5,-10.15,-38.85,-38.73,0,*61
1522083672.86,19622,13.75,72530.8,-10.15,-38.85,-38.85,0,*6B
1522083674.08,19623,13.75,72530.3,-10.15,-38.85,-38.85,0,*6A
1522083675.28,19624,13.75,72528.8,-10.15,-38.73,-38.73,0,*6D
1522083676.53,19625,13.69,72528.3,-10.15,-38.67,-38.67,0,*6C
1522083677.78,19626,13.75,72534.3,-10.15,-38.49,-38.55,0,*62
1522083679.05,19627,13.75,72534.8,-10.13,-38.49,-38.61,0,*62
1522083680.31,19628,13.75,72534.3,-10.13,-38.67,-38.61,0,*61
1522083681.56,19629,13.75,72532.3,-10.15,-38.67,-38.67,0,*60
1522083682.82,19630,13.75,72532.3,-10.13,-38.67,-38.61,0,*68
1522083684.09,19631,13.75,72528.5,-10.13,-38.79,-38.61,0,*66
1522083685.33,19632,13.75,72530.8,-10.15,-39.03,-38.85,0,*65
1522083686.6,19633,13.75,72532.3,-10.13,-38.85,-38.79,0,*6E
1522083687.85,19634,13.75,72532.0,-10.15,-38.67,-38.67,0,*6C
1522083689.07,19635,13.75,72530.5,-10.15,-38.85,-38.85,0,*6D
1522083690.32,19636,13.75,72530.5,-10.15,-38.91,-38.91,0,*6E
1522083691.53,19637,13.75,72528.8,-10.15,-38.73,-38.73,0,*6F
1522083692.74,19638,13.75,72530.3,-10.15,-38.85,-38.85,0,*60
1522083693.95,19639,13.75,72528.5,-10.15,-38.85,-38.85,0,*61
1522083695.21,19640,13.75,72528.0,-10.15,-39.03,-38.91,0,*65
1522083696.47,19641,13.75,72526.8,-10.15,-38.91,-38.91,0,*6E
1522083697.71,19642,13.75,72530.3,-10.15,-39.09,-39.23,0,*65
1522083698.92,19643,13.75,72528.0,-10.15,-39.09,-39.09,0,*6C
1522083700.14,19644,13.75,72528.5,-10.15,-39.09,-39.09,0,*6B
1522083701.4,19645,13.75,72528.8,-10.19,-39.23,-39.23,0,*66
1522083702.66,19646,13.69,72528.5,-10.19,-39.29,-39.23,0,*6F
1522083703.89,19647,13.75,72532.5,-10.19,-39.29,-39.47,0,*6C
1522083705.15,19648,13.75,72530.3,-10.19,-39.29,-39.23,0,*61
1522083706.41,19649,13.69,72528.3,-10.19,-39.23,-39.23,0,*6A
1522083707.67,19650,13.69,72528.5,-10.19,-39.23,-39.29,0,*68
1522083708.9,19651,13.75,72530.0,-10.19,-39.29,-39.35,0,*6E
1522083710.2,19652,13.75,72530.8,-10.21,-39.15,-39.15,0,*6B
1522083711.49,19653,13.75,72532.0,-10.21,-39.15,-39.29,0,*65
1522083712.73,19654,13.69,72530.0,-10.21,-38.97,-39.09,0,*6B
1522083713.96,19655,13.75,72528.5,-10.21,-38.97,-38.97,0,*6C
1522083715.25,19656,13.69,72526.3,-10.21,-38.91,-38.91,0,*6F
1522083716.49,19657,13.75,72530.0,-10.21,-38.85,-38.85,0,*6E
1522083717.78,19658,13.75,72530.0,-10.21,-38.79,-38.79,0,*61
1522083719.07,19659,13.75,72526.0,-10.21,-38.91,-38.79,0,*66
1522083720.36,19660,13.75,72526.0,-10.21,-38.91,-38.79,0,*6C
1522083721.57,19661,13.75,72528.3,-10.19,-38.73,-38.73,0,*60
1522083722.86,19662,13.75,72528.8,-10.21,-38.79,-38.79,0,*68
1522083724.13,19663,13.75,72534.5,-10.21,-39.09,-39.15,0,*64
1522083725.39,19664,13.75,72532.0,-10.21,-39.35,-39.29,0,*63
1522083726.68,19665,13.75,72530.5,-10.21,-39.41,-39.53,0,*6C
1522083727.91,19666,13.69,72528.8,-10.21,-39.35,-39.35,0,*6C
1522083729.19,19667,13.75,72532.0,-10.21,-39.29,-39.15,0,*62
1522083730.49,19668,13.75,72530.8,-10.21,-39.15,-39.29,0,*6D
1522083731.74,19669,13.75,72528.3,-10.23,-39.29,-39.53,0,*6C
1522083733.0,19670,13.69,72524.5,-10.23,-39.41,-39.29,0,*67
1522083734.26,19671,13.75,72524.8,-10.25,-39.47,-39.41,0,*68
1522083735.53,19672,13.75,72526.5,-10.25,-39.03,-38.97,0,*61
1522083736.77,19673,13.75,72524.0,-10.25,-38.85,-38.85,0,*6C
1522083737.99,19674,13.75,72528.0,-10.23,-38.85,-38.85,0,*6D
1522083739.24,19675,13.75,72528.8,-10.25,-38.85,-38.85,0,*6A
1522083740.48,19676,13.69,72524.3,-10.25,-38.85,-38.85,0,*69
1522083741.75,19677,13.75,72532.0,-10.23,-38.79,-38.79,0,*6E
1522083742.95,19678,13.69,72528.0,-10.23,-38.73,-38.73,0,*61
1522083744.16,19679,13.75,72530.8,-10.23,-38.61,-38.73,0,*63
1522083745.37,19680,13.69,72528.0,-10.23,-38.43,-38.61,0,*66
1522083746.67,19681,13.69,72528.5,-10.25,-38.79,-38.79,0,*61
1522083747.87,19682,13.69,72528.3,-10.23,-38.73,-38.73,0,*64
1522083749.08,19683,13.75,72534.0,-10.23,-38.61,-38.61,0,*65
1522083750.33,19684,13.69,72530.3,-10.21,-38.43,-38.55,0,*67
1522083751.54,19685,13.75,72534.5,-10.23,-38.43,-38.43,0,*63
1522083752.75,19686,13.75,72532.5,-10.23,-38.35,-38.43,0,*61
1522083753.99,19687,13.69,72532.8,-10.21,-38.43,-38.55,0,*64
1522083755.26,19688,13.69,72532.5,-10.19,-38.49,-38.67,0,*6B
1522083756.5,19689,13.75,72534.0,-10.19,-38.79,-38.73,0,*6C
1522083757.79,19690,13.69,72530.3,-10.21,-38.79,-38.79,0,*65
1522083759.01,19691,13.75,72528.5,-10.19,-38.85,-38.73,0,*66
1522083760.28,19692,13.75,72530.5,-10.21,-39.09,-38.91,0,*67
1522083761.57,19693,13.75,72526.8,-10.21,-38.79,-38.79,0,*66
1522083762.83,19694,13.75,72532.8,-10.21,-38.97,-38.91,0,*67
1522083764.07,19695,13.75,72530.8,-10.21,-38.97,-39.09,0,*66
1522083765.31,19696,13.75,72530.0,-10.21,-39.09,-39.09,0,*63
1522083766.57,19697,13.69,72526.5,-10.21,-38.97,-38.91,0,*64
1522083767.81,19698,13.75,72528.3,-10.21,-39.09,-38.97,0,*6B
1522083769.08,19699,13.69,72524.8,-10.23,-38.79,-38.91,0,*68
1522083770.31,19700,13.75,72532.0,-10.23,-38.97,-38.91,0,*69
1522083771.54,19701,13.75,72528.0,-10.23,-38.97,-38.91,0,*68
1522083772.75,19702,13.69,72526.5,-10.23,-38.97,-38.97,0,*6D
1522083773.98,19703,13.69,72528.3,-10.23,-38.97,-38.79,0,*6C
1522083775.22,19704,13.69,72528.8,-10.25,-38.97,-38.85,0,*6E
1522083776.48,19705,13.69,72528.3,-10.23,-38.91,-38.79,0,*6C
1522083777.75,19706,13.69,72526.8,-10.23,-38.79,-38.79,0,*69
1522083778.98,19707,13.69,72524.8,-10.23,-38.73,-38.79,0,*62
1522083780.22,19708,13.69,72524.5,-10.23,-38.73,-38.79,0,*6D
1522083781.51,19709,13.75,72528.0,-10.25,-38.79,-38.79,0,*60
1522083782.77,19710,13.69,72530.3,-10.23,-38.91,-38.91,0,*6E
1522083784.01,19711,13.75,72530.0,-10.23,-38.79,-38.73,0,*65
1522083785.22,19712,13.69,72530.0,-10.23,-38.61,-38.73,0,*6F
1522083786.48,19713,13.69,72530.8,-10.23,-38.79,-38.79,0,*6D
1522083787.69,19714,13.75,72532.5,-10.23,-38.61,-38.73,0,*69
1522083788.92,19715,13.75,72532.8,-10.23,-38.97,-38.91,0,*6D
1522083790.19,19716,13.69,72530.5,-10.23,-38.79,-38.79,0,*68
1522083791.4,19717,13.75,72530.8,-10.23,-38.97,-38.97,0,*69
1522083792.63,19718,13.69,72530.0,-10.23,-39.29,-39.09,0,*64
1522083793.85,19719,13.69,72534.8,-10.23,-39.09,-39.09,0,*67
1522083795.09,19720,13.69,72528.3,-10.23,-39.15,-38.97,0,*66
1522083796.35,19721,13.69,72530.0,-10.23,-38.91,-38.91,0,*6C
1522083797.56,19722,13.69,72528.3,-10.23,-38.97,-38.97,0,*6F
1522083798.8,19723,13.75,72534.0,-10.23,-39.15,-38.97,0,*65
1522083800.03,19724,13.69,72532.0,-10.23,-39.29,-39.35,0,*64
1522083801.3,19725,13.69,72530.0,-10.23,-39.15,-39.15,0,*68
1522083802.53,19726,13.69,72532.0,-10.25,-38.97,-38.85,0,*6E
1522083803.82,19727,13.69,72528.8,-10.25,-38.79,-38.79,0,*6C
1522083805.07,19728,13.69,72530.0,-10.25,-38.85,-38.85,0,*63
1522083806.34,19729,13.69,72530.5,-10.23,-38.79,-38.79,0,*64
1522083807.57,19730,13.69,72528.0,-10.25,-38.97,-38.97,0,*6A
1522083808.81,19731,13.69,72528.0,-10.23,-39.09,-38.91,0,*6D
1522083810.02,19732,13.69,72530.8,-10.23,-38.97,-38.97,0,*6E
1522083811.25,19733,13.69,72532.0,-10.25,-38.97,-38.97,0,*69
1522083812.51,19734,13.69,72528.5,-10.23,-38.79,-38.79,0,*68
1522083813.78,19735,13.69,72528.8,-10.25,-38.79,-38.85,0,*6C
1522083815.02,19736,13.69,72530.3,-10.23,-38.73,-38.91,0,*66
1522083816.28,19737,13.69,72532.8,-10.23,-38.79,-38.91,0,*6D
1522083817.53,19738,13.69,72530.5,-10.25,-38.85,-38.85,0,*62
1522083818.79,19739,13.69,72530.3,-10.23,-38.91,-38.79,0,*63
1522083820.05,19740,13.69,72532.5,-10.25,-38.97,-38.79,0,*6D
1522083821.32,19741,13.69,72530.3,-10.25,-39.03,-38.85,0,*63
1522083822.58,19742,13.69,72532.8,-10.25,-39.03,-38.97,0,*63
1522083823.87,19743,13.69,72532.8,-10.25,-39.15,-39.03,0,*69
1522083825.09,19744,13.69,72534.0,-10.23,-39.09,-38.97,0,*69
1522083826.35,19745,13.69,72532.3,-10.25,-39.03,-38.97,0,*64
1522083827.61,19746,13.69,72532.5,-10.23,-38.91,-38.79,0,*6B
1522083828.9,19747,13.69,72530.3,-10.25,-39.03,-39.15,0,*6D
1522083830.19,19748,13.69,72534.0,-10.25,-39.03,-39.15,0,*62
1522083831.45,19749,13.69,72534.3,-10.25,-39.35,-39.15,0,*66
1522083832.74,19750,13.69,72534.0,-10.25,-39.03,-39.15,0,*6B
1522083834.04,19751,13.69,72536.8,-10.25,-39.15,-39.15,0,*6D
1522083835.33,19752,13.69,72536.3,-10.29,-39.29,-39.29,0,*62
1522083836.59,19753,13.69,72532.0,-10.27,-39.15,-39.03,0,*6A
1522083837.86,19754,13.69,72532.3,-10.27,-39.15,-39.15,0,*6A
1522083839.1,19755,13.69,72534.8,-10.27,-39.47,-39.59,0,*64
1522083840.34,19756,13.69,72532.3,-10.27,-39.47,-39.41,0,*6E
1522083841.55,19757,13.69,72534.5,-10.27,-39.47,-39.47,0,*69
1522083842.81,19758,13.69,72534.5,-10.27,-39.41,-39.23,0,*62
1522083844.07,19759,13.69,72534.5,-10.29,-39.41,-39.47,0,*6F
1522083845.3,19760,13.69,72534.0,-10.27,-39.47,-39.41,0,*6B
1522083846.54,19761,13.69,72532.8,-10.29,-39.47,-39.47,0,*62
1522083847.78,19762,13.69,72534.5,-10.29,-39.47,-39.47,0,*61
1522083849.02,19763,13.69,72536.8,-10.29,-39.47,-39.47,0,*60
1522083850.31,19764,13.69,72536.8,-10.29,-39.41,-39.29,0,*69
1522083851.57,19765,13.69,72536.0,-10.31,-39.41,-39.29,0,*61
1522083852.8,19766,13.69,72536.8,-10.31,-39.41,-39.47,0,*6A
1522083854.08,19767,13.69,72532.5,-10.33,-39.29,-39.29,0,*6F
1522083855.35,19768,13.69,72538.3,-10.33,-39.35,-39.15,0,*62
1522083856.59,19769,13.69,72534.8,-10.31,-39.47,-39.29,0,*6B
1522083857.87,19770,13.69,72536.5,-10.33,-39.29,-39.15,0,*66
1522083859.16,19771,13.69,72528.3,-10.33,-39.29,-39.15,0,*67
1522083860.4,19772,13.69,72530.5,-10.31,-39.09,-39.23,0,*61
1522083861.66,19773,13.69,72528.8,-10.31,-39.03,-38.91,0,*62
1522083862.92,19774,13.69,72532.8,-10.31,-38.91,-38.91,0,*6F
1522083864.13,19775,13.69,72534.5,-10.31,-38.97,-38.97,0,*6E
1522083865.39,19776,13.69,72528.3,-10.33,-38.91,-38.97,0,*69
1522083866.62,19777,13.69,72532.5,-10.31,-39.29,-39.47,0,*64
1522083867.85,19778,13.69,72534.8,-10.33,-39.35,-39.47,0,*64
1522083869.11,19779,13.69,72530.5,-10.33,-39.15,-39.35,0,*62
1522083870.37,19780,13.69,72532.8,-10.35,-39.29,-39.29,0,*60
1522083871.65,19781,13.69,72536.0,-10.33,-39.15,-39.09,0,*6A
1522083872.89,19782,13.69,72532.8,-10.33,-39.09,-38.97,0,*62
1522083874.12,19783,13.69,72532.3,-10.33,-38.97,-38.97,0,*65
1522083875.38,19784,13.69,72530.8,-10.31,-38.91,-38.91,0,*60
1522083876.62,19785,13.69,72530.0,-10.33,-38.97,-39.09,0,*65
1522083877.92,19786,13.69,72528.0,-10.33,-39.15,-39.15,0,*60
1522083879.16,19787,13.69,72532.5,-10.33,-39.09,-38.97,0,*67
1522083880.4,19788,13.69,72530.0,-10.33,-39.09,-38.97,0,*68
1522083881.67,19789,13.69,72530.5,-10.33,-38.91,-38.97,0,*69
1522083882.93,19790,13.69,72532.5,-10.31,-38.91,-38.91,0,*65
1522083884.17,19791,13.69,72532.8,-10.31,-38.85,-38.91,0,*61
1522083885.41,19792,13.69,72532.3,-10.31,-38.91,-38.85,0,*62
1522083886.7,19793,13.69,72534.5,-10.33,-38.91,-38.91,0,*64
1522083887.91,19794,13.69,72532.3,-10.31,-38.73,-38.85,0,*68
1522083889.2,19795,13.69,72534.0,-10.33,-38.91,-38.91,0,*62
1522083890.49,19796,13.69,72530.0,-10.33,-38.91,-38.91,0,*61
1522083891.73,19797,13.69,72534.8,-10.31,-38.85,-38.91,0,*67
1522083893.02,19798,13.69,72528.3,-10.33,-38.79,-38.79,0,*6F
1522083894.29,19799,13.69,72530.3,-10.33,-38.73,-38.79,0,*64
1522083895.51,19800,13.69,72532.5,-10.31,-38.67,-38.73,0,*66
1522083896.78,19801,13.69,72534.0,-10.33,-38.79,-38.85,0,*63
1522083897.99,19802,13.69,72534.5,-10.31,-38.73,-38.85,0,*68
1522083899.21,19803,13.69,72526.0,-10.31,-38.85,-38.85,0,*60
1522083900.51,19804,13.69,72528.3,-10.33,-38.79,-38.91,0,*63
1522083901.72,19805,13.69,72530.0,-10.31,-38.85,-38.73,0,*6F
1522083902.93,19806,13.69,72532.5,-10.31,-38.73,-38.85,0,*6C
1522083904.13,19807,13.69,72534.0,-10.31,-38.73,-38.73,0,*64
1522083905.35,19808,13.69,72534.5,-10.31,-38.73,-38.85,0,*62
1522083906.56,19809,13.69,72534.5,-10.31,-38.73,-38.85,0,*63
1522083907.85,19810,13.69,72534.0,-10.33,-38.91,-38.91,0,*60
1522083909.06,19811,13.69,72534.3,-10.31,-38.85,-38.85,0,*63
1522083910.36,19812,13.69,72534.8,-10.33,-38.79,-38.91,0,*64
1522083911.58,19813,13.69,72532.0,-10.31,-38.85,-38.85,0,*61
1522083912.86,19814,13.69,72528.3,-10.33,-38.91,-38.91,0,*64
1522083914.13,19815,13.69,72534.3,-10.31,-39.03,-38.91,0,*6D
1522083915.36,19816,13.69,72532.0,-10.31,-38.67,-38.73,0,*61
1522083916.57,19817,13.69,72534.5,-10.31,-38.85,-38.85,0,*65
1522083917.79,19818,13.69,72534.5,-10.31,-38.85,-38.85,0,*6A
1522083919.03,19819,13.69,72532.0,-10.29,-38.73,-38.85,0,*6B
1522083920.27,19820,13.69,72530.0,-10.29,-38.73,-38.85,0,*61
1522083921.56,19821,13.69,72530.5,-10.33,-38.91,-38.91,0,*62
1522083922.78,19822,13.69,72534.3,-10.31,-38.85,-38.85,0,*63
1522083924.04,19823,13.69,72532.5,-10.31,-39.03,-39.03,0,*62
1522083925.3,19824,13.69,72534.3,-10.31,-39.03,-39.03,0,*65
1522083926.56,19825,13.69,72534.3,-10.31,-39.03,-38.91,0,*6E
1522083927.8,19826,13.69,72530.3,-10.31,-39.09,-39.03,0,*6D
1522083929.06,19827,13.69,72530.0,-10.31,-39.03,-39.03,0,*66
1522083930.27,19828,13.69,72532.3,-10.31,-39.09,-38.97,0,*6F
1522083931.54,19829,13.69,72534.3,-10.31,-39.03,-38.91,0,*62
1522083932.8,19830,13.69,72530.0,-10.31,-38.91,-38.91,0,*60
1522083934.06,19831,13.69,72534.8,-10.33,-38.97,-38.91,0,*65
1522083935.27,19832,13.69,72532.8,-10.31,-38.73,-38.85,0,*6B
1522083936.49,19833,13.69,72532.0,-10.31,-38.85,-38.85,0,*63
1522083937.76,19834,13.69,72534.0,-10.33,-39.09,-39.15,0,*6B
1522083939.05,19835,13.69,72530.8,-10.33,-39.15,-39.15,0,*67
1522083940.3,19836,13.69,72530.3,-10.31,-38.85,-38.91,0,*63
1522083941.51,19837,13.69,72528.8,-10.31,-38.73,-38.85,0,*6E
1522083942.72,19838,13.69,72528.8,-10.31,-38.73,-38.85,0,*61
1522083943.94,19839,13.69,72528.5,-10.31,-38.85,-38.85,0,*69
1522083945.14,19840,13.69,72528.0,-10.31,-38.97,-38.97,0,*67
1522083946.36,19841,13.69,72530.8,-10.31,-38.85,-38.85,0,*66
1522083947.57,19842,13.69,72528.8,-10.31,-38.73,-38.73,0,*65
1522083948.77,19843,13.69,72530.8,-10.31,-38.55,-38.73,0,*60
1522083950.03,19844,13.69,72530.3,-10.29,-38.67,-38.73,0,*6F
1522083951.25,19845,13.69,72530.8,-10.31,-38.55,-38.55,0,*62
1522083952.47,19846,13.69,72528.3,-10.31,-38.67,-38.73,0,*64
1522083953.68,19847,13.69,72528.3,-10.31,-38.73,-38.73,0,*60
1522083954.94,19848,13.69,72526.3,-10.29,-38.67,-38.73,0,*63
1522083956.2,19849,13.69,72524.0,-10.29,-38.67,-38.73,0,*62
1522083957.44,19850,13.69,72530.0,-10.29,-38.85,-38.85,0,*6F
1522083958.7,19851,13.69,72530.0,-10.29,-38.67,-38.73,0,*6B
1522083959.95,19852,13.69,72530.5,-10.29,-38.85,-38.85,0,*6D
1522083961.21,19853,13.69,72530.8,-10.27,-38.67,-38.79,0,*6D
1522083962.47,19854,13.69,72528.8,-10.29,-38.67,-38.73,0,*6E
1522083963.72,19855,13.69,72530.3,-10.29,-38.85,-38.85,0,*6A
1522083964.96,19856,13.69,72528.8,-10.29,-38.73,-38.85,0,*60
1522083966.19,19857,13.69,72530.0,-10.29,-38.73,-38.73,0,*68
1522083967.45,19858,13.69,72530.3,-10.29,-38.73,-38.67,0,*62
1522083968.69,19859,13.69,72528.0,-10.29,-38.55,-38.73,0,*62
1522083969.94,19860,13.69,72530.8,-10.29,-38.85,-38.85,0,*6C
1522083971.18,19861,13.69,72528.8,-10.29,-38.73,-38.85,0,*64
1522083972.41,19862,13.69,72528.8,-10.29,-38.73,-38.73,0,*6E
1522083973.67,19863,13.69,72530.3,-10.27,-38.67,-38.67,0,*61
1522083974.93,19864,13.69,72532.3,-10.27,-39.03,-39.03,0,*66
1522083976.17,19865,13.69,72530.8,-10.29,-38.73,-38.85,0,*60
1522083977.42,19866,13.69,72532.5,-10.29,-38.85,-38.85,0,*6A
1522083978.69,19867,13.69,72534.5,-10.29,-39.03,-38.85,0,*64
1522083979.96,19868,13.69,72534.5,-10.29,-39.03,-39.09,0,*6E
1522083981.24,19869,13.69,72532.8,-10.29,-38.91,-39.03,0,*6F
1522083982.52,19870,13.69,72536.3,-10.29,-38.85,-38.91,0,*68
1522083983.79,19871,13.69,72530.8,-10.29,-38.85,-38.91,0,*69
1522083985.06,19872,13.69,72528.0,-10.29,-38.85,-38.91,0,*6A
1522083986.35,19873,13.69,72530.3,-10.29,-38.91,-38.91,0,*6E
1522083987.64,19874,13.69,72528.8,-10.29,-39.03,-39.03,0,*69
1522083988.9,19875,13.69,72530.8,-10.31,-39.03,-39.03,0,*61
1522083990.16,19876,13.69,72530.3,-10.31,-39.03,-38.91,0,*68
1522083991.45,19877,13.69,72526.3,-10.29,-38.91,-38.91,0,*6A
1522083992.69,19878,13.69,72526.8,-10.27,-38.61,-38.79,0,*62
1522083993.92,19879,13.69,72530.5,-10.31,-38.67,-38.73,0,*68
1522083995.16,19880,13.69,72526.8,-10.31,-38.67,-38.85,0,*67
1522083996.37,19881,13.69,72528.8,-10.31,-38.73,-38.85,0,*63
1522083997.61,19882,13.69,72528.0,-10.29,-38.85,-38.85,0,*60
1522083998.9,19883,13.69,72528.0,-10.29,-39.03,-39.03,0,*61
1522084000.19,19884,13.69,72530.3,-10.29,-39.03,-39.03,0,*66
1522084001.45,19885,13.69,72524.8,-10.31,-39.03,-39.03,0,*6E
1522084002.71,19886,13.69,72530.8,-10.31,-38.91,-38.91,0,*6D
1522084003.93,19887,13.69,72530.8,-10.31,-39.09,-39.09,0,*6C
1522084005.19,19888,13.69,72530.3,-10.31,-39.23,-39.23,0,*63
1522084006.44,19889,13.69,72530.8,-10.31,-39.29,-39.23,0,*68
1522084007.69,19890,13.69,72530.3,-10.31,-38.85,-38.91,0,*6F
1522084008.89,19891,13.69,72530.5,-10.31,-38.73,-38.73,0,*6B
1522084010.1,19892,13.69,72526.8,-10.31,-38.55,-38.73,0,*6C
1522084011.36,19893,13.69,72526.0,-10.29,-38.67,-38.73,0,*65
1522084012.59,19894,13.69,72526.5,-10.29,-38.55,-38.73,0,*63
1522084013.83,19895,13.69,72528.8,-10.29,-38.73,-38.85,0,*6F
1522084015.05,19896,13.69,72530.3,-10.27,-38.85,-38.85,0,*6B
1522084016.3,19897,13.69,72528.5,-10.29,-38.55,-38.55,0,*64
1522084017.57,19898,13.69,72526.5,-10.29,-38.55,-38.67,0,*6A
1522084018.85,19899,13.69,72528.8,-10.29,-38.67,-38.67,0,*6A
1522084020.09,19900,13.69,72532.5,-10.29,-38.55,-38.73,0,*6F
1522084021.35,19901,13.69,72528.5,-10.29,-38.67,-38.73,0,*6F
1522084022.64,19902,13.69,72530.3,-10.29,-38.67,-38.67,0,*69
1522084023.85,19903,13.69,72530.3,-10.27,-38.73,-38.85,0,*6F
1522084025.09,19904,13.69,72532.3,-10.29,-38.55,-38.85,0,*62
1522084026.34,19905,13.69,72528.8,-10.29,-38.85,-38.85,0,*6E
1522084027.55,19906,13.69,72534.0,-10.27,-38.85,-38.97,0,*60
1522084028.82,19907,13.69,72534.0,-10.29,-39.03,-39.09,0,*66
1522084030.08,19908,13.69,72530.8,-10.31,-38.91,-38.91,0,*6A
1522084031.31,19909,13.63,72528.5,-10.31,-38.67,-38.73,0,*6E
1522084032.55,19910,13.69,72530.0,-10.29,-38.55,-38.73,0,*6E
1522084033.79,19911,13.69,72530.8,-10.27,-38.61,-38.79,0,*6C
1522084035.05,19912,13.69,72530.5,-10.27,-38.67,-38.67,0,*66
1522084036.29,19913,13.69,72528.8,-10.29,-38.73,-38.85,0,*60
1522084037.52,19914,13.69,72526.8,-10.29,-38.73,-38.73,0,*6E
1522084038.76,19915,13.69,72528.5,-10.27,-38.61,-38.79,0,*68
1522084040.0,19916,13.69,72526.0,-10.29,-38.55,-38.73,0,*68
1522084041.24,19917,13.69,72530.5,-10.27,-38.61,-38.67,0,*65
1522084042.53,19918,13.69,72530.5,-10.29,-38.67,-38.67,0,*62
1522084043.79,19919,13.69,72528.0,-10.29,-38.55,-38.67,0,*62
1522084045.04,19920,13.69,72526.8,-10.27,-38.49,-38.61,0,*6D
1522084046.3,19921,13.69,72530.8,-10.29,-38.67,-38.85,0,*64
1522084047.57,19922,13.69,72530.5,-10.27,-38.49,-38.67,0,*69
1522084048.84,19923,13.69,72530.5,-10.27,-38.49,-38.79,0,*67
1522084050.08,19924,13.63,72530.0,-10.27,-38.61,-38.79,0,*6A
1522084051.34,19925,13.69,72528.5,-10.27,-38.67,-38.79,0,*6D
1522084052.58,19926,13.69,72532.0,-10.27,-38.61,-38.79,0,*68
1522084053.84,19927,13.63,72528.3,-10.27,-38.67,-38.67,0,*60
1522084055.08,19928,13.63,72528.0,-10.27,-38.61,-38.67,0,*69
1522084056.32,19929,13.69,72530.8,-10.27,-38.61,-38.79,0,*67
1522084057.58,19930,13.63,72530.5,-10.27,-38.79,-38.79,0,*66
1522084058.84,19931,13.69,72530.3,-10.27,-38.67,-38.79,0,*68
1522084060.08,19932,13.69,72528.3,-10.27,-38.61,-38.79,0,*6D
1522084061.32,19933,13.69,72528.3,-10.27,-38.61,-38.79,0,*6C
1522084062.59,19934,13.69,72526.8,-10.27,-38.49,-38.67,0,*6E
1522084063.83,19935,13.69,72528.5,-10.27,-38.61,-38.67,0,*65
1522084065.09,19936,13.63,72530.0,-10.27,-38.67,-38.79,0,*6F
1522084066.32,19937,13.69,72530.8,-10.27,-39.03,-38.97,0,*6D
1522084067.59,19938,13.63,72530.3,-10.27,-38.79,-38.79,0,*6E
1522084068.82,19939,13.63,72530.8,-10.27,-38.97,-39.03,0,*63
1522084070.02,19940,13.69,72534.3,-10.27,-38.97,-38.97,0,*61
1522084071.27,19941,13.69,72532.5,-10.27,-38.79,-38.85,0,*63
1522084072.51,19942,13.63,72530.8,-10.27,-38.61,-38.79,0,*6A
1522084073.74,19943,13.63,72528.5,-10.27,-38.67,-38.85,0,*6E
1522084075.01,19944,13.69,72532.3,-10.27,-39.15,-39.03,0,*62
1522084076.27,19945,13.63,72528.8,-10.29,-38.73,-38.91,0,*66
1522084077.54,19946,13.63,72530.3,-10.27,-38.79,-38.79,0,*67
1522084078.77,19947,13.63,72528.8,-10.27,-38.97,-39.03,0,*6A
1522084080.03,19948,13.63,72530.3,-10.27,-39.15,-39.23,0,*6C
1522084081.27,19949,13.63,72524.0,-10.27,-38.97,-39.15,0,*63
1522084082.47,19950,13.69,72528.8,-10.27,-38.97,-38.97,0,*60
1522084083.74,19951,13.63,72526.3,-10.29,-39.03,-39.09,0,*65
1522084085.03,19952,13.63,72526.3,-10.29,-39.03,-38.91,0,*66
1522084086.32,19953,13.63,72528.0,-10.29,-39.03,-39.03,0,*6D
1522084087.61,19954,13.63,72528.5,-10.29,-38.91,-38.91,0,*6A
1522084088.85,19955,13.63,72530.0,-10.29,-38.73,-38.85,0,*62
1522084090.1,19956,13.63,72530.3,-10.29,-39.09,-39.09,0,*68
1522084091.36,19957,13.63,72530.0,-10.27,-38.91,-39.03,0,*6D